Theta_e
357 357 356 356 356 356 357 357 355 355 359 356 355 356 358 362 364 363 363 365 366 365 367 370 371 370 365 367 370 368 367 366 365 364 365 364 362 360 358 359 361 361
358 358 360 358 360 361 360 358 358 358 360 362 360 360 364 364 363 364 363 363 365 364 368 367 369 370 369 366 367 365 365 366 365 362 364 365 363 361 360 360 359 361
356 357 356 356 354 356 354 358 360 360 358 357 360 363 360 362 362 366 366 365 363 360 365 369 369 370 367 368 369 366 362 367 365 362 365 364 362 361 362 358 357 359
358 357 354 353 354 354 355 358 360 360 359 358 358 359 360 358 362 362 365 366 365 365 364 364 366 365 367 368 371 366 365 368 364 367 366 366 365 362 361 361 361 361
355 357 356 355 356 358 358 356 354 356 357 358 359 361 363 364 364 360 362 363 366 364 365 366 367 366 369 369 370 367 366 363 365 370 366 365 367 365 361 361 362 360
357 360 360 358 359 359 355 355 356 355 357 356 358 359 361 362 362 361 360 360 360 361 360 361 363 363 364 366 368 367 365 362 363 369 366 366 365 364 361 362 364 364
354 357 356 357 357 357 356 356 357 359 357 357 359 360 361 360 361 362 363 362 361 362 361 363 366 365 365 368 369 369 368 368 368 368 366 364 366 365 364 365 366 365
353 355 356 357 355 356 357 356 357 358 359 360 358 360 361 359 361 360 361 362 362 362 364 363 366 369 367 368 369 368 366 363 364 366 366 364 365 365 364 363 366 366
353 355 355 355 354 354 354 353 355 357 359 358 357 356 360 360 359 360 364 365 364 365 366 365 368 367 369 368 367 366 365 363 361 363 363 361 361 363 363 364 363 364
353 354 353 353 352 352 353 353 353 355 358 357 356 356 356 360 360 361 364 367 366 366 366 366 365 365 366 366 366 365 364 364 365 364 363 362 360 360 360 363 361 360
352 352 352 353 353 352 352 353 353 353 356 356 355 355 357 357 362 364 366 367 365 365 365 365 364 365 364 363 363 363 363 362 362 364 362 362 361 363 356 353 351 352
352 352 351 352 354 353 353 353 353 353 354 356 356 355 358 357 361 362 363 366 366 365 365 365 365 365 365 364 363 362 362 361 362 362 361 363 362 360 355 353 353 353
351 352 353 352 355 356 356 354 354 353 354 353 355 356 356 356 357 363 365 364 365 365 363 364 365 365 365 364 361 359 358 360 360 362 361 361 361 357 355 353 352 352
353 354 356 356 357 359 359 357 355 354 354 355 355 356 355 355 356 357 361 360 361 364 365 365 365 363 363 359 357 357 357 358 359 359 359 360 360 358 356 353 354 355
357 357 358 359 359 360 359 359 357 356 356 356 357 356 354 355 357 356 356 358 362 364 365 365 362 360 358 356 355 355 356 353 356 356 358 358 357 356 357 356 357 358
358 359 358 359 358 358 359 360 358 357 356 356 356 355 357 358 358 358 355 355 358 363 363 362 360 360 357 354 355 357 355 353 355 358 359 358 358 357 357 355 355 357
358 358 358 358 358 359 360 360 359 358 358 358 357 357 357 359 358 356 356 355 356 359 358 359 361 356 353 344 345 350 355 357 356 356 357 357 357 358 356 356 354 355
358 358 358 358 359 358 359 360 360 359 359 359 357 356 359 358 356 356 359 358 357 357 357 360 357 333 332 339 343 343 351 356 358 356 355 356 356 356 356 355 352 352
358 358 358 358 359 359 359 360 359 359 359 358 356 357 357 358 358 357 358 359 358 361 361 357 348 328 329 334 337 338 341 352 355 353 355 353 355 357 355 353 353 351
358 358 358 359 359 360 360 360 359 358 358 358 358 359 358 358 357 358 359 361 361 360 357 348 341 327 326 330 332 334 335 344 354 355 356 355 358 358 356 354 354 349
357 358 357 358 359 360 360 359 359 359 359 360 359 359 359 359 359 359 360 361 358 354 348 339 330 320 322 325 327 330 333 343 354 356 356 356 356 356 355 352 345 339
357 357 358 358 359 359 358 358 359 359 359 361 361 361 362 362 361 360 355 351 348 345 341 336 329 318 320 323 323 326 332 347 355 355 354 352 348 345 343 340 337 336
357 357 357 358 359 358 357 357 358 359 360 362 360 360 357 355 353 350 347 345 344 343 341 337 333 322 317 320 323 326 336 352 354 353 347 340 338 338 336 335 336 337
355 356 356 357 358 356 356 357 359 361 361 361 358 354 351 348 344 342 342 343 342 340 339 335 332 323 316 318 322 328 346 352 350 344 339 336 335 335 335 335 334 338
353 355 355 355 355 355 356 356 358 359 359 357 354 350 346 343 341 340 339 339 338 337 333 335 333 327 316 318 322 328 343 348 343 340 336 334 333 332 334 335 335 335
351 352 354 354 355 356 358 358 357 351 349 348 347 343 339 339 338 336 333 333 334 334 334 335 334 333 327 316 318 321 328 346 343 338 333 330 330 330 329 330 329 328
Wind_Speed
8 7 7 7 7 6 6 7 7 7 6 6 6 6 6 5 5 5 6 6 6 6 5 5 5 5 5 5 4 5 5 5 4 3 3 3 4 4 4 4 4 4
9 8 6 6 5 5 5 6 6 6 6 6 5 5 4 5 5 6 6 6 6 7 6 5 6 6 6 5 5 5 4 5 5 4 4 5 5 5 6 6 6 5
10 9 9 9 8 8 9 7 6 6 6 6 5 5 5 5 6 6 6 6 6 6 6 5 6 5 6 5 5 5 5 4 5 5 4 6 6 6 6 7 6 6
11 10 10 10 9 8 7 6 6 5 5 5 6 6 5 5 5 6 5 6 6 6 6 5 5 5 5 5 5 5 5 5 5 5 5 5 5 6 7 6 6 6
12 10 9 8 7 7 6 6 7 6 7 6 6 5 5 5 6 6 6 5 5 6 5 5 5 5 5 5 5 5 5 6 6 5 5 6 6 6 6 6 6 7
10 9 9 8 8 8 8 8 8 7 7 7 7 6 6 6 6 7 6 6 6 6 6 6 5 5 6 6 5 6 6 6 5 4 5 6 6 6 5 5 6 6
11 10 11 10 10 10 10 9 8 7 7 7 5 6 6 6 7 7 7 6 7 6 6 6 6 7 6 5 5 5 5 5 5 4 5 6 5 6 6 6 6 6
12 10 11 10 11 10 11 10 9 8 7 6 7 7 7 7 7 7 6 6 6 6 7 7 7 6 6 5 5 5 6 5 5 6 6 6 5 6 6 6 6 6
11 10 10 12 12 11 12 12 10 10 8 8 8 8 7 7 7 7 5 5 6 6 6 7 5 6 5 5 4 5 6 6 6 5 6 6 7 7 7 6 6 6
11 10 12 12 12 12 13 12 11 10 9 10 10 9 8 7 8 7 6 5 6 6 6 6 6 6 6 6 7 7 7 7 7 6 6 7 7 7 7 5 6 7
12 12 12 12 12 11 13 13 12 11 9 10 10 10 9 8 6 6 6 6 6 6 6 6 7 7 7 7 7 7 7 7 7 6 6 6 6 5 5 8 4 4
13 13 13 13 13 13 13 12 11 11 11 10 10 11 10 9 7 6 6 7 7 7 7 7 7 7 7 8 7 7 6 6 6 6 5 5 5 2 4 5 6 4
13 13 13 13 12 12 11 11 11 11 11 11 10 10 10 10 9 8 6 7 7 7 8 7 7 7 6 6 4 7 8 7 6 5 5 4 2 4 4 3 2 2
13 12 12 11 10 10 10 10 11 11 11 10 9 10 10 10 10 9 8 8 7 7 7 6 6 6 2 4 3 8 8 7 6 6 5 3 2 4 4 5 7 7
11 10 10 10 10 9 9 10 11 11 10 9 9 10 9 10 10 10 8 8 7 7 6 6 6 4 5 7 7 5 5 9 8 6 5 3 5 5 5 6 5 4
10 10 10 10 10 10 11 11 11 11 11 10 10 10 9 8 8 8 9 9 8 7 7 6 5 4 6 8 6 4 6 7 6 4 5 6 6 6 3 3 2 2
10 10 10 11 11 11 10 10 11 10 10 10 10 10 10 9 8 10 10 9 9 8 8 6 5 1 4 10 11 11 8 6 5 5 6 8 7 6 5 4 3 2
10 11 11 11 11 12 11 11 10 10 10 10 10 11 9 9 10 10 9 9 8 9 7 5 3 9 7 6 8 7 10 7 5 5 5 6 9 7 4 3 4 4
11 11 11 11 11 11 11 10 11 11 11 11 12 11 9 9 10 9 9 9 9 7 5 4 5 7 8 8 8 11 9 7 6 6 6 8 10 7 5 4 5 6
11 12 12 12 11 11 11 11 11 12 12 11 10 9 9 9 10 10 9 7 6 6 5 4 5 6 4 9 11 11 8 9 8 7 7 9 8 5 4 5 5 6
12 12 12 12 11 11 10 11 11 11 10 9 8 9 9 9 9 9 6 4 5 5 5 4 4 3 3 6 9 10 8 8 6 7 7 5 4 3 0 2 5 5
12 12 12 12 11 11 11 11 11 10 10 9 8 7 6 5 4 4 6 6 5 6 6 5 4 2 2 6 9 11 12 9 7 6 5 3 5 7 7 6 6 6
13 12 12 12 12 12 12 12 12 11 10 8 8 6 4 4 4 5 5 7 7 6 7 5 4 2 2 2 4 10 10 5 5 4 5 7 6 6 7 7 6 6
14 15 14 14 11 12 13 11 10 8 9 8 9 7 6 6 5 6 5 5 6 6 5 6 5 3 1 2 4 5 5 4 4 6 6 7 8 8 8 8 8 11
13 14 15 14 13 12 11 11 11 8 8 7 7 7 7 7 6 6 6 5 5 7 8 8 6 4 3 4 7 8 7 7 7 7 8 7 9 10 9 8 8 10
13 14 15 15 13 12 10 8 8 8 9 8 6 8 10 9 8 8 8 6 5 6 6 6 7 5 5 7 10 10 9 8 8 9 10 10 9 9 9 9 9 8
Wind_Direction
199 202 207 207 213 215 211 207 213 214 214 221 224 224 226 230 225 226 231 232 232 240 234 232 236 241 246 242 239 246 251 256 268 255 254 255 260 264 268 272 273 275
199 199 203 211 208 205 211 217 211 217 212 216 228 227 226 226 223 224 229 234 233 238 237 238 237 241 245 251 244 250 259 262 268 270 268 264 266 273 275 277 278 280
199 200 204 210 216 214 221 212 214 215 224 228 223 226 235 227 232 220 230 236 243 249 238 237 242 240 247 249 250 252 254 261 268 276 276 276 281 278 282 285 279 273
199 202 207 213 219 221 216 211 207 216 226 221 227 232 229 238 232 231 227 229 241 246 251 254 254 256 248 246 241 247 247 248 256 260 263 264 266 276 278 278 277 274
202 201 205 209 212 213 217 220 228 220 225 231 237 227 222 223 232 238 229 227 229 245 243 243 242 246 240 243 237 247 247 250 244 237 251 261 266 263 264 266 270 273
198 195 193 199 197 204 217 221 223 229 230 231 232 233 229 220 228 236 235 236 233 237 247 247 242 240 236 232 231 240 250 254 247 224 242 252 265 271 273 267 269 273
205 199 201 200 204 206 215 219 221 224 231 239 238 233 229 225 223 228 231 235 247 251 252 245 234 239 234 233 229 235 240 246 249 237 245 253 252 264 271 273 273 276
213 206 203 202 208 210 214 219 221 221 221 224 234 233 227 230 230 235 234 237 246 247 246 245 241 235 241 235 234 234 243 238 230 226 236 247 251 255 261 269 271 269
213 209 205 207 212 216 220 223 223 222 219 224 233 236 224 230 234 237 230 231 242 247 243 252 247 251 245 241 235 235 244 249 246 238 240 249 249 248 254 262 268 269
214 214 214 213 217 220 224 225 228 227 219 226 233 235 234 224 226 232 222 223 234 239 243 248 249 241 237 229 230 231 234 233 235 234 238 248 254 258 255 267 307 318
217 216 217 216 218 221 224 224 226 229 225 226 229 233 234 234 212 213 216 220 230 235 237 237 242 240 237 237 234 233 234 240 241 238 245 250 261 266 2 27 326 277
216 218 219 217 215 219 224 225 226 227 228 225 225 229 231 231 222 214 218 219 224 228 234 238 241 239 236 238 242 238 238 244 246 246 246 254 265 18 102 197 220 218
216 215 218 220 218 218 219 223 226 228 228 229 223 224 225 229 226 215 211 225 224 228 236 236 237 237 238 245 285 298 283 265 258 250 254 253 266 136 187 153 214 211
217 218 216 216 216 213 212 217 224 229 230 231 229 225 224 228 230 222 220 229 228 224 230 234 235 242 241 51 295 258 266 273 263 262 260 254 224 180 173 182 208 215
208 211 212 209 209 211 213 216 220 225 227 228 226 229 231 230 228 230 232 228 220 222 227 229 237 226 153 193 220 249 284 286 277 270 267 248 239 215 208 205 216 231
208 205 206 209 211 213 214 213 217 221 224 224 227 230 231 229 225 225 233 234 227 219 225 228 229 203 187 179 198 227 247 252 260 268 268 251 224 226 228 238 250 269
209 211 209 208 207 209 213 214 217 218 219 219 220 221 224 219 221 228 230 233 229 229 233 224 213 174 118 175 188 204 223 240 260 264 258 254 242 220 213 191 207 220
211 211 209 211 208 208 208 210 212 214 216 216 219 222 216 220 225 227 226 229 231 235 231 219 164 77 97 134 159 187 230 240 243 241 238 253 258 243 219 193 188 190
212 211 211 212 211 209 208 205 207 212 215 216 218 219 218 216 218 221 223 223 226 218 200 167 127 82 106 133 161 205 196 223 234 233 224 235 247 249 235 210 186 176
211 212 213 212 210 209 207 205 205 211 215 218 218 213 211 212 218 221 221 213 203 192 147 131 120 82 121 150 182 215 209 205 229 231 234 241 246 245 231 215 189 157
214 211 214 212 209 206 205 208 208 210 213 213 212 209 208 210 213 212 196 166 154 147 141 127 88 69 152 154 174 197 214 221 226 224 219 232 235 237 310 96 102 96
219 214 212 212 206 204 208 209 208 207 206 204 206 213 207 192 160 157 134 131 130 130 129 127 105 44 176 172 167 184 188 203 206 199 208 161 75 70 85 83 92 105
226 217 213 208 204 197 200 203 203 200 199 190 194 189 164 154 139 129 128 132 138 143 139 126 119 42 322 189 167 161 187 206 194 176 100 93 85 78 75 81 89 103
234 229 222 214 196 198 199 197 195 194 198 181 177 156 151 137 132 122 118 125 134 136 135 124 108 65 335 131 122 168 219 174 141 121 110 96 93 82 80 83 95 98
233 231 229 217 203 199 197 196 200 195 197 178 148 134 127 126 118 113 109 104 109 110 108 111 107 90 69 119 118 115 128 133 135 125 109 109 105 102 96 95 91 96
237 232 229 220 205 199 190 179 170 166 168 169 130 125 136 140 128 130 128 122 120 116 112 111 109 101 86 109 115 116 121 135 140 132 125 121 117 114 110 99 91 85